Visalia, CA

7:51 AM PST on December 08, 2019 (GMT -0800)
Visalia Municipal

Weather History for KVIS - August, 2019

Change the Weather History Date:

Monday, August 5, 2019

  Actual Average Record
Temperature  
Mean Temperature 82 °F -  
Max Temperature 99 °F 96 °F 107 °F (1932)
Min Temperature 66 °F 65 °F 52 °F (1950)
Cooling Degree Days 16    
Growing Degree Days 32 (Base 50)    
Moisture  
Dew Point 63 °F    
Average Humidity 55    
Maximum Humidity 84    
Minimum Humidity 30    
Precipitation  
Precipitation 0.00 in - - ()
Sea Level Pressure  
Sea Level Pressure 29.90 in    
Wind  
Wind Speed 6 mph (West)    
Max Wind Speed 12 mph    
Max Gust Speed -    
Visibility 10 miles    
Events      
Averages and records for this station are not official NWS values.
T = Trace of Precipitation, MM = Missing Value Source: NWS Daily Summary

Daily Weather History Graph

Daily Weather History Graph

Search for Another Location

Airport or City:

Astronomy

Aug. 05, 2019 Rise Set
Actual Time 6:07 AM PDT 7:59 PM PDT
Civil Twilight 5:39 AM PDT 8:27 PM PDT
Nautical Twilight 5:05 AM PDT 9:01 PM PDT
Astronomical Twilight 4:28 AM PDT 9:37 PM PDT
Moon 11:20 AM PDT (8/5) 11:23 PM PDT (8/5)
Length of Visible Light 14h 48m
Length of Day
13h 51m
Waxing Crescent, 29% of the Moon is Illuminated
Aug 5
Waxing Crescent
Aug 7
First Quarter
Aug 15
Full
Aug 23
Last Quarter
Aug 30
New

Hourly Weather History & Observations

Time (PDT) Temp. Heat Index Dew Point Humidity Pressure Visibility Wind Dir Wind Speed Gust Speed Precip Events Conditions
12:56 AM 75.0 °F - 63.0 °F 66% 29.88 in 10.0 mi WNW 8.1 mph - N/A   Clear
1:56 AM 73.9 °F - 63.0 °F 68% 29.89 in 10.0 mi WNW 6.9 mph - N/A   Clear
2:56 AM 73.9 °F - 63.0 °F 68% 29.90 in 10.0 mi NW 6.9 mph - N/A   Clear
3:56 AM 73.0 °F - 62.1 °F 68% 29.91 in 10.0 mi West 4.6 mph - N/A   Clear
4:56 AM 70.0 °F - 61.0 °F 73% 29.91 in 10.0 mi Calm Calm - N/A   Clear
5:56 AM 66.9 °F - 62.1 °F 84% 29.93 in 10.0 mi Calm Calm - N/A   Clear
6:56 AM 66.9 °F - 62.1 °F 84% 29.94 in 10.0 mi South 3.5 mph - N/A   Clear
7:56 AM 72.0 °F - 63.0 °F 73% 29.95 in 10.0 mi SE 4.6 mph - N/A   Clear
8:56 AM 77.0 °F - 63.0 °F 62% 29.96 in 10.0 mi SSE 4.6 mph - N/A   Clear
9:56 AM 80.1 °F 81.2 °F 62.1 °F 54% 29.97 in 10.0 mi South 4.6 mph - N/A   Clear
10:56 AM 84.0 °F 85.4 °F 64.0 °F 51% 29.96 in 10.0 mi SW 3.5 mph - N/A   Clear
11:56 AM 86.0 °F 86.8 °F 63.0 °F 46% 29.94 in 9.0 mi Variable 4.6 mph - N/A   Clear
12:56 PM 89.1 °F 90.0 °F 63.0 °F 42% 29.93 in 10.0 mi South 6.9 mph - N/A   Clear
1:56 PM 91.9 °F 92.9 °F 63.0 °F 38% 29.91 in 10.0 mi WNW 9.2 mph - N/A   Clear
2:56 PM 93.9 °F 94.8 °F 62.1 °F 35% 29.89 in 10.0 mi WNW 10.4 mph - N/A   Clear
3:56 PM 96.1 °F 96.4 °F 61.0 °F 31% 29.87 in 10.0 mi WNW 11.5 mph - N/A   Clear
4:56 PM 97.0 °F 97.4 °F 61.0 °F 30% 29.85 in 10.0 mi WNW 10.4 mph - N/A   Clear
5:56 PM 95.0 °F 97.0 °F 64.0 °F 36% 29.84 in 10.0 mi WNW 10.4 mph - N/A   Clear
6:56 PM 93.0 °F 94.2 °F 63.0 °F 37% 29.84 in 10.0 mi WNW 9.2 mph - N/A   Clear
7:56 PM 89.1 °F 89.3 °F 62.1 °F 40% 29.84 in 10.0 mi NW 6.9 mph - N/A   Clear
8:56 PM 84.0 °F 85.8 °F 64.9 °F 53% 29.86 in 10.0 mi WNW 8.1 mph - N/A   Clear
9:56 PM 80.1 °F 81.7 °F 64.0 °F 58% 29.88 in 10.0 mi WNW 6.9 mph - N/A   Clear
10:56 PM 78.1 °F - 63.0 °F 60% 29.87 in 10.0 mi NW 6.9 mph - N/A   Clear
11:56 PM 77.0 °F - 63.0 °F 62% 29.86 in 10.0 mi NW 4.6 mph - N/A   Clear